Terminal Aerodrome Forecast
Issued by NWS Wilmington, OH

Current Version | Previous Version | Graphics & Text | Print | Product List | Glossary On
Versions: 1 2 3 4 5 6 7 8 9 10 11 12 13 14 15 16
000
FTUS41 KILN 251736
TAFDAY
TAF
KDAY 251736Z 2518/2618 29010KT P6SM OVC050
     FM260000 27006KT P6SM BKN050
     FM260600 29005KT P6SM BKN060
     FM261300 32007KT P6SM BKN050=

USA.gov is the U.S. government's official web portal to all federal, state and local government web resources and services.